Back to catalog

COSMOS 530

AliveMilitaryLEO
NORAD 6265·PAYLOAD·🇷🇺 Russia

Launched Nov 1, 1972 from Plesetsk Cosmodrome

Loading…

Next Passes (next 24 hours)

TLE

FreshSource: Space-Track

Epoch: Sep 14, 2026, 11:30 UTC

1 06265U 72087C   26257.47985134 -.00000003  00000-0  74846-4 0  9993
2 06265  74.0363 177.4595 0087536 242.6718 237.5692 12.65678662488880

Track COSMOS 530 in real time with AllMySat

Download on the App Store